Weather History for KEUF - November, 2012

Change the Weather History Date:

Wednesday, November 7, 2012

  Actual Average (KLSF) Record (KLSF)
Temperature  
Mean Temperature 52 °F -  
Max Temperature 61 °F 69 °F 82 °F (2005)
Min Temperature 44 °F 43 °F 24 °F (2010)
Degree Days  
Heating Degree Days 12    
Growing Degree Days 2 (Base 50)    
Moisture  
Dew Point 43 °F    
Average Humidity 75    
Maximum Humidity 93    
Minimum Humidity 41    
Precipitation  
Precipitation 0.00 in - - ()
Sea Level Pressure  
Sea Level Pressure 29.97 in    
Wind  
Wind Speed 2 mph (WNW)    
Max Wind Speed 12 mph    
Max Gust Speed 21 mph    
Visibility 8 miles    
Events Rain    
Averages and records for this station are not official NWS values.
T = Trace of Precipitation, MM = Missing Value Source: NWS Daily Summary

Daily Weather History Graph

Daily Weather History Graph

Search for Another Location

Airport or City:

Trip Planner

Search our weather history database for the weather conditions in past years. The results will help you decide how hot, cold, wet, or windy it might be!

Date:

Astronomy

Nov. 07, 2012 Rise Set
Actual Time 6:02 AM CST 4:45 PM CST
Civil Twilight 5:37 AM CST 5:11 PM CST
Nautical Twilight 5:07 AM CST 5:40 PM CST
Astronomical Twilight 4:39 AM CST 6:08 PM CST
Moon No Moon Rise 12:32 PM CST
Length of Visible Light 11h 34m
Length of Day
10h 42m
Last Quarter, 43% of the Moon is Illuminated
Nov 7
Last Quarter
Nov 13
New
Nov 20
First Quarter
Nov 28
Full
Dec 6
Last Quarter

Hourly Weather History & Observations

Time (CST) Temp. Windchill Dew Point Humidity Pressure Visibility Wind Dir Wind Speed Gust Speed Precip Events Conditions
12:12 AM 51.8 °F - 46.4 °F 82% 29.96 in 9.0 mi Calm Calm - N/A   Overcast
12:18 AM 51.8 °F - 46.4 °F 82% 29.96 in 9.0 mi Calm Calm - N/A   Overcast
12:47 AM 51.8 °F - 46.4 °F 82% 29.96 in 9.0 mi Calm Calm - N/A   Overcast
12:58 AM 51.1 °F - 46.0 °F 83% 29.95 in 9.0 mi NW 3.5 mph - N/A   Overcast
1:58 AM 48.9 °F - 46.0 °F 90% 29.94 in 5.0 mi Calm Calm - N/A   Overcast
2:58 AM 48.9 °F - 46.9 °F 93% 29.94 in 6.0 mi Calm Calm - N/A   Overcast
3:58 AM 50.0 °F - 46.9 °F 89% 29.94 in 7.0 mi Calm Calm - N/A   Overcast
4:58 AM 48.9 °F - 46.0 °F 90% 29.95 in 6.0 mi Calm Calm - N/A   Overcast
5:48 AM 44.6 °F - 42.8 °F 93% 29.95 in 1.8 mi Calm Calm - N/A   Clear
5:58 AM 44.1 °F - 42.1 °F 93% 29.95 in 1.8 mi Calm Calm - N/A   Clear
6:12 AM 44.6 °F - 42.8 °F 93% 29.96 in 2.5 mi Calm Calm - N/A   Clear
6:29 AM 44.6 °F - 42.8 °F 93% 29.96 in 1.8 mi Calm Calm - N/A   Clear
6:37 AM 44.6 °F - 42.8 °F 93% 29.97 in 2.5 mi Calm Calm - N/A   Clear
6:43 AM 44.6 °F - 42.8 °F 93% 29.97 in 3.0 mi Calm Calm - N/A   Partly Cloudy
6:52 AM 46.4 °F - 44.6 °F 93% 29.97 in 4.0 mi Calm Calm - N/A   Mostly Cloudy
6:58 AM 48.0 °F - 46.0 °F 93% 29.97 in 5.0 mi Calm Calm - 0.00 in Rain Light Rain
7:22 AM 48.2 °F - 46.4 °F 93% 29.97 in 8.0 mi WNW 3.5 mph - 0.00 in   Scattered Clouds
7:31 AM 50.0 °F - 46.4 °F 87% 29.98 in 9.0 mi West 4.6 mph - 0.00 in   Partly Cloudy
7:58 AM 52.0 °F - 46.9 °F 83% 29.98 in 10.0 mi WNW 8.1 mph - 0.00 in   Partly Cloudy
8:26 AM 53.6 °F - 46.4 °F 77% 29.98 in 10.0 mi WNW 3.5 mph - N/A   Mostly Cloudy
8:58 AM 53.1 °F - 45.0 °F 74% 29.98 in 10.0 mi West 8.1 mph - N/A   Overcast
9:17 AM 53.6 °F - 44.6 °F 72% 29.98 in 10.0 mi West 8.1 mph - N/A   Overcast
9:58 AM 55.0 °F - 44.1 °F 67% 29.98 in 10.0 mi Variable 5.8 mph - N/A   Overcast
10:41 AM 59.0 °F - 42.8 °F 55% 29.97 in 10.0 mi Variable 6.9 mph - N/A   Mostly Cloudy
10:58 AM 60.1 °F - 41.0 °F 49% 29.95 in 10.0 mi WNW 8.1 mph - N/A   Scattered Clouds
11:58 AM 61.0 °F - 37.0 °F 41% 29.92 in 10.0 mi WNW 11.5 mph 20.7 mph N/A   Scattered Clouds
12:58 PM 59.0 °F - 36.0 °F 42% 29.91 in 10.0 mi NNW 5.8 mph - N/A   Partly Cloudy
1:58 PM 60.1 °F - 36.0 °F 41% 29.90 in 10.0 mi NNW 6.9 mph - N/A   Mostly Cloudy
2:58 PM 59.0 °F - 36.0 °F 42% 29.91 in 10.0 mi Variable 5.8 mph - N/A   Mostly Cloudy
3:58 PM 57.9 °F - 37.0 °F 46% 29.94 in 10.0 mi Variable 4.6 mph - N/A   Overcast
4:58 PM 55.9 °F - 37.9 °F 51% 29.96 in 10.0 mi Calm Calm - N/A   Overcast
5:58 PM 55.0 °F - 39.0 °F 55% 29.99 in 10.0 mi Calm Calm - N/A   Overcast
6:58 PM 54.0 °F - 39.0 °F 57% 30.01 in 10.0 mi WNW 6.9 mph - N/A   Overcast
7:58 PM 51.1 °F - 39.9 °F 66% 30.04 in 10.0 mi NW 4.6 mph - N/A   Partly Cloudy
8:58 PM 48.9 °F - 39.9 °F 71% 30.05 in 10.0 mi Variable 4.6 mph - N/A   Clear
9:58 PM 46.9 °F - 39.9 °F 77% 30.07 in 10.0 mi Variable 4.6 mph - N/A   Clear
10:58 PM 45.0 °F 43.5 °F 39.9 °F 82% 30.08 in 10.0 mi NW 3.5 mph - N/A   Clear
11:58 PM 44.1 °F 41.5 °F 39.9 °F 85% 30.08 in 10.0 mi WNW 4.6 mph - N/A   Clear